Visibility
12.9 7.1 12.5 8.8 15.0 15.0 13.9 5.8 7.5 15.0 15.0 15.0 15.0 15.0 15.0 14.6 14.3 5.1 2.7 7.5 0.1 0.0 0.0 13.8 15.0 15.0 0.2 13.9 0.2 1.1 0.2 0.1 0.0 0.0 0.1 0.2 0.1 2.0 8.6 15.0 15.0 9.5 0.6 0.2 0.3 0.1 0.1 15.0 15.0 15.0 15.0 15.0 15.0 15.0
15.0 15.0 14.1 5.6 10.3 14.9 15.0 6.9 9.2 9.1 15.0 15.0 15.0 15.0 15.0 15.0 15.0 14.6 0.7 14.5 8.4 0.0 0.0 4.4 14.7 7.6 15.0 15.0 15.0 0.1 0.4 5.4 13.4 0.6 0.2 0.5 0.1 0.1 7.8 10.1 15.0 2.0 15.0 15.0 14.4 13.6 15.0 15.0 15.0 15.0 15.0 15.0 15.0 15.0
15.0 15.0 8.3 9.0 8.3 15.0 15.0 15.0 13.9 12.7 12.9 15.0 14.5 15.0 15.0 15.0 11.3 15.0 13.9 14.3 0.1 0.0 0.1 0.0 0.1 15.0 15.0 15.0 6.8 0.3 0.0 0.1 0.0 0.0 0.1 0.1 0.1 0.1 0.1 0.1 12.6 13.4 13.2 4.4 1.3 12.7 15.0 15.0 15.0 15.0 15.0 15.0 15.0 15.0
13.2 10.2 14.0 14.5 6.5 11.0 13.0 15.0 15.0 14.1 13.7 10.4 13.9 15.0 15.0 15.0 15.0 14.2 8.3 12.2 0.1 0.0 0.1 5.5 15.0 15.0 15.0 15.0 15.0 15.0 15.0 0.0 0.1 0.0 0.1 0.1 0.2 0.8 2.9 7.1 2.5 6.5 0.7 2.7 0.1 0.3 0.2 3.3 2.9 8.1 0.6 0.1 0.1 7.0
15.0 15.0 15.0 15.0 15.0 15.0 15.0 15.0 15.0 15.0 15.0 15.0 11.8 15.0 15.0 15.0 12.0 15.0 15.0 15.0 15.0 1.0 0.1 15.0 15.0 15.0 15.0 15.0 15.0 15.0 13.7 2.0 0.0 0.1 0.1 0.1 0.1 0.1 0.4 0.2 0.8 0.2 0.1 0.1 0.1 0.3 0.2 2.0 1.6 0.2 3.4 14.3 4.7 0.1
11.7 6.0 15.0 15.0 15.0 15.0 15.0 15.0 15.0 8.8 13.3 14.4 15.0 15.0 15.0 13.1 15.0 15.0 15.0 15.0 15.0 14.5 0.1 0.4 15.0 15.0 15.0 15.0 15.0 15.0 15.0 14.8 3.6 0.2 0.8 10.5 14.5 2.1 0.1 0.1 0.2 0.4 0.1 0.1 0.5 0.5 1.6 0.2 0.1 0.1 0.1 0.1 1.4 7.2
15.0 12.2 8.9 13.9 15.0 15.0 15.0 13.7 12.6 13.4 7.2 12.4 11.6 10.7 13.1 9.3 15.0 15.0 15.0 15.0 15.0 0.9 0.1 2.9 12.5 15.0 15.0 15.0 10.7 13.8 12.8 6.5 3.8 0.4 0.1 14.7 15.0 15.0 1.2 2.6 1.1 15.0 15.0 15.0 4.1 7.5 2.2 1.4 3.0 3.8 0.2 0.1 0.1 0.1
11.8 15.0 15.0 15.0 15.0 15.0 15.0 11.9 11.4 10.6 12.6 12.3 8.4 15.0 10.7 11.7 6.4 6.7 0.2 15.0 15.0 9.0 13.9 0.7 0.7 9.9 14.2 10.1 4.8 2.9 3.4 1.7 0.2 0.4 0.5 5.5 10.0 0.6 0.1 2.6 15.0 15.0 15.0 11.3 15.0 12.8 0.7 3.4 11.0 3.2 0.2 0.1 0.1 0.1
15.0 15.0 8.7 15.0 15.0 13.1 15.0 15.0 15.0 15.0 15.0 13.7 8.8 14.6 15.0 0.2 0.2 0.0 13.1 15.0 15.0 1.1 0.1 0.1 0.2 0.6 11.0 5.0 5.6 7.2 1.5 1.1 1.8 1.0 1.2 3.2 0.9 1.0 0.4 0.8 4.0 5.1 1.3 1.7 8.5 15.0 1.1 1.4 1.8 0.9 0.5 0.2 0.1 0.2
15.0 15.0 15.0 14.4 15.0 15.0 15.0 15.0 13.9 15.0 13.0 15.0 15.0 15.0 4.6 0.1 1.0 0.2 7.8 0.7 2.7 0.2 0.2 0.1 1.9 3.3 9.8 14.9 6.7 6.1 0.4 1.2 0.6 3.3 0.5 0.4 0.2 0.3 0.9 4.1 2.7 1.8 2.1 1.5 2.7 14.5 14.5 15.0 9.0 0.8 0.1 0.1 0.1 0.1
15.0 14.7 15.0 15.0 14.8 15.0 15.0 15.0 15.0 15.0 15.0 13.6 7.0 4.6 1.4 15.0 15.0 13.3 2.3 6.6 2.0 1.1 9.0 3.0 10.5 15.0 14.7 2.3 1.5 0.8 0.1 0.2 0.1 4.3 1.0 0.5 0.6 1.0 15.0 15.0 15.0 15.0 3.3 2.8 0.6 1.2 1.1 0.5 0.4 0.1 0.1 0.1 0.2 0.6
15.0 15.0 15.0 15.0 15.0 15.0 15.0 15.0 15.0 11.6 1.4 14.4 9.7 15.0 15.0 15.0 15.0 15.0 12.3 15.0 15.0 4.2 6.7 2.3 8.4 14.9 11.6 2.0 0.4 0.8 0.1 0.1 0.1 0.3 0.3 0.4 0.3 8.7 14.8 8.6 15.0 15.0 15.0 5.0 0.8 0.3 0.1 0.1 0.1 0.1 0.1 0.2 0.2 0.2
15.0 15.0 15.0 15.0 15.0 15.0 15.0 15.0 15.0 15.0 15.0 15.0 15.0 15.0 15.0 15.0 15.0 15.0 15.0 15.0 15.0 15.0 4.5 11.7 6.3 15.0 15.0 8.0 0.6 0.1 0.1 0.2 0.2 0.1 0.1 0.2 1.7 15.0 4.1 8.5 15.0 15.0 15.0 0.7 0.8 0.9 12.9 1.0 0.1 0.2 0.2 0.2 0.3 0.4
15.0 15.0 15.0 15.0 15.0 15.0 15.0 15.0 15.0 15.0 15.0 15.0 15.0 15.0 15.0 15.0 6.6 13.8 14.4 15.0 15.0 10.7 5.9 2.9 3.0 3.7 10.5 1.0 0.4 0.2 0.1 0.1 0.1 0.1 0.2 0.7 4.8 9.8 1.2 1.0 0.7 2.3 5.1 15.0 15.0 15.0 15.0 15.0 15.0 15.0 9.4 2.8 3.2 12.7
15.0 15.0 15.0 15.0 15.0 15.0 15.0 15.0 15.0 15.0 15.0 15.0 15.0 15.0 15.0 12.9 6.2 6.1 11.7 8.5 15.0 3.8 3.7 1.5 1.7 0.7 0.9 0.3 0.1 0.3 0.3 0.2 0.2 0.2 3.9 13.7 15.0 15.0 15.0 11.8 1.3 0.6 0.6 0.6 4.3 15.0 15.0 15.0 15.0 15.0 15.0 15.0 15.0 15.0
15.0 15.0 15.0 15.0 15.0 15.0 15.0 15.0 15.0 15.0 15.0 15.0 15.0 12.5 11.9 15.0 15.0 15.0 4.7 8.0 13.6 4.8 1.1 1.3 1.6 1.4 0.5 0.5 0.6 0.4 0.3 0.4 0.9 12.8 15.0 15.0 15.0 15.0 15.0 15.0 15.0 15.0 9.1 0.8 0.5 4.9 15.0 15.0 15.0 15.0 15.0 15.0 15.0 15.0
15.0 15.0 15.0 15.0 15.0 15.0 15.0 15.0 15.0 15.0 15.0 15.0 14.7 7.9 15.0 8.9 15.0 15.0 5.2 15.0 10.2 13.6 3.9 8.5 10.8 3.9 11.1 15.0 14.4 5.3 14.4 14.7 15.0 15.0 15.0 15.0 15.0 15.0 15.0 15.0 15.0 15.0 12.8 5.9 5.6 2.3 7.9 15.0 15.0 15.0 15.0 15.0 15.0 15.0
15.0 15.0 15.0 15.0 15.0 15.0 15.0 15.0 15.0 15.0 15.0 6.4 15.0 15.0 4.1 13.0 15.0 15.0 15.0 15.0 15.0 7.2 8.7 15.0 11.2 15.0 9.1 15.0 15.0 15.0 15.0 15.0 15.0 15.0 15.0 15.0 15.0 15.0 15.0 15.0 15.0 15.0 15.0 11.0 5.3 2.0 2.6 1.3 15.0 15.0 15.0 15.0 15.0 15.0
15.0 15.0 15.0 15.0 15.0 15.0 15.0 15.0 14.2 15.0 10.5 5.7 9.1 3.2 15.0 15.0 15.0 15.0 15.0 15.0 15.0 15.0 15.0 15.0 15.0 15.0 15.0 15.0 7.7 9.7 9.5 4.3 1.2 6.9 14.8 15.0 15.0 15.0 15.0 15.0 15.0 6.2 12.6 4.5 1.6 0.7 1.9 1.2 0.6 12.7 15.0 15.0 15.0 15.0
15.0 15.0 15.0 15.0 15.0 15.0 15.0 15.0 14.7 15.0 15.0 14.5 11.0 3.9 7.2 12.7 15.0 15.0 15.0 15.0 15.0 15.0 15.0 15.0 15.0 15.0 15.0 15.0 7.6 0.8 2.8 3.2 1.2 1.1 9.5 15.0 15.0 15.0 15.0 1.6 4.8 15.0 2.7 6.1 4.2 1.4 0.5 2.3 1.2 0.2 1.8 15.0 12.1 15.0
15.0 0.4 15.0 15.0 15.0 15.0 15.0 12.3 10.7 3.5 2.2 15.0 2.2 14.9 14.9 12.3 15.0 15.0 15.0 15.0 15.0 14.5 15.0 14.9 15.0 15.0 15.0 15.0 15.0 2.9 5.7 9.2 3.1 2.4 1.6 0.8 2.9 0.3 2.2 15.0 15.0 14.4 1.4 2.1 2.4 2.6 1.6 0.8 3.5 0.4 0.4 0.6 9.3 11.5
14.3 15.0 15.0 15.0 15.0 15.0 12.5 3.5 14.0 4.4 15.0 6.0 13.8 15.0 8.5 9.3 15.0 15.0 4.1 12.2 5.9 15.0 15.0 6.4 8.8 12.0 5.8 2.3 2.1 0.6 0.2 0.2 1.1 2.9 0.8 0.3 0.3 1.6 7.2 13.2 7.6 2.1 3.9 6.4 0.9 0.6 1.2 1.3 1.3 1.5 0.4 0.7 0.4 0.7
15.0 15.0 15.0 15.0 15.0 15.0 15.0 15.0 15.0 15.0 15.0 15.0 13.6 15.0 15.0 15.0 14.4 15.0 15.0 9.8 9.5 1.1 0.9 0.5 3.3 15.0 15.0 15.0 15.0 15.0 15.0 2.4 0.5 1.1 1.1 0.5 0.7 4.6 1.8 2.7 11.0 2.4 1.6 14.1 4.6 0.5 0.4 1.2 0.4 0.3 0.7 0.3 0.5 1.6
15.0 15.0 15.0 15.0 15.0 15.0 15.0 15.0 15.0 15.0 15.0 15.0 15.0 15.0 15.0 15.0 15.0 10.5 12.1 0.1 0.1 0.2 3.2 15.0 6.9 0.7 6.8 15.0 6.3 1.4 2.7 0.9 0.7 2.0 3.3 0.7 0.4 3.4 10.9 1.6 13.2 12.0 0.4 0.5 0.5 0.3 0.4 0.9 0.4 2.1 0.4 0.3 0.3 0.3
15.0 15.0 15.0 15.0 15.0 15.0 15.0 15.0 15.0 15.0 15.0 15.0 15.0 15.0 15.0 15.0 15.0 6.8 0.2 0.2 0.9 1.8 1.2 0.7 1.4 3.7 0.9 0.9 5.9 9.9 15.0 0.8 0.3 0.3 1.6 1.6 0.3 0.7 5.4 15.0 15.0 12.0 0.3 0.3 0.6 0.6 0.7 0.9 0.7 0.5 0.5 0.4 0.4 0.4
15.0 15.0 11.5 15.0 15.0 15.0 15.0 15.0 15.0 15.0 15.0 15.0 15.0 15.0 15.0 15.0 0.2 0.1 0.3 0.2 0.7 0.4 0.1 0.1 0.3 0.5 2.5 7.3 1.5 1.4 4.4 13.7 1.2 1.1 5.8 5.8 1.6 0.4 0.4 2.2 5.8 10.7 0.7 0.3 0.4 0.6 0.8 5.2 2.4 0.4 0.4 0.6 0.3 0.2
15.0 15.0 15.0 15.0 15.0 15.0 15.0 15.0 15.0 15.0 15.0 15.0 15.0 15.0 15.0 5.5 0.1 0.2 0.2 0.2 0.2 0.2 2.3 1.6 0.7 0.9 3.3 7.6 15.0 15.0 15.0 15.0 11.7 3.5 11.7 15.0 15.0 15.0 4.7 1.6 1.8 10.8 4.4 0.4 0.8 1.5 0.9 2.5 14.6 2.2 0.4 0.4 0.5 0.8
15.0 15.0 15.0 15.0 15.0 15.0 15.0 15.0 15.0 15.0 15.0 15.0 15.0 0.4 0.2 0.2 0.3 0.2 0.2 0.2 1.1 7.6 14.9 14.9 15.0 14.3 15.0 15.0 15.0 15.0 15.0 15.0 15.0 15.0 15.0 15.0 15.0 10.3 7.1 5.7 2.7 1.0 0.1 0.6 3.0 2.7 2.7 13.3 15.0 15.0 1.7 0.2 0.4 0.6
15.0 15.0 15.0 15.0 15.0 15.0 15.0 15.0 15.0 15.0 15.0 15.0 11.2 1.8 4.3 10.3 1.0 0.6 0.5 4.6 15.0 15.0 6.1 8.0 15.0 15.0 15.0 15.0 15.0 15.0 15.0 15.0 2.6 2.1 4.3 1.7 0.3 0.5 12.5 6.4 4.4 6.3 2.4 1.1 0.9 0.6 1.9 1.7 0.2 0.1 0.6 0.6 0.7 0.9
15.0 15.0 15.0 15.0 15.0 15.0 15.0 15.0 15.0 15.0 15.0 15.0 15.0 15.0 15.0 15.0 1.3 0.6 6.1 10.7 14.9 15.0 7.3 12.4 15.0 5.9 5.5 5.6 4.8 15.0 15.0 15.0 3.5 0.4 0.3 0.1 0.1 0.3 0.1 1.1 15.0 15.0 12.9 4.3 3.3 5.9 3.0 0.3 9.1 3.9 0.5 0.3 0.6 0.9
15.0 15.0 15.0 15.0 15.0 15.0 15.0 15.0 15.0 15.0 15.0 15.0 15.0 15.0 15.0 15.0 1.1 0.7 7.1 4.7 14.9 15.0 15.0 12.1 15.0 15.0 8.1 5.2 0.4 0.3 1.0 4.3 4.0 15.0 0.5 0.1 0.2 0.2 0.2 1.0 3.4 15.0 13.0 3.8 5.1 4.5 10.3 1.9 1.3 0.5 0.6 0.6 0.3 0.5
15.0 15.0 15.0 15.0 15.0 15.0 15.0 15.0 15.0 15.0 15.0 15.0 15.0 15.0 15.0 11.5 2.1 3.7 1.0 7.5 15.0 15.0 4.3 7.8 15.0 15.0 15.0 15.0 14.7 1.7 0.1 0.7 1.6 0.5 0.1 0.1 14.5 2.4 2.9 3.3 4.1 5.9 12.0 14.3 7.1 2.3 1.1 0.7 0.8 0.9 0.9 0.7 0.4 0.2
15.0 15.0 15.0 15.0 15.0 15.0 15.0 15.0 15.0 15.0 15.0 15.0 10.3 4.7 3.9 13.8 3.1 0.7 0.3 10.4 15.0 15.0 15.0 15.0 15.0 15.0 15.0 15.0 15.0 13.3 6.0 9.6 0.3 0.1 0.1 0.2 0.8 5.7 9.7 14.7 14.8 5.0 0.8 0.4 0.4 0.6 0.8 1.6 0.9 0.8 0.6 0.4 0.4 0.5